星链-2519 (STARLINK-2519 )

导读

STARLINK-2519是美国星链计划中的低轨通信卫星,于2021年4月29日发射升空,隶属于SpaceX打造的Starlink星座,承担提供全球覆盖高速卫星互联网服务任务。该卫星运行在近地轨道,采用SpaceX成熟技术方案,目前已进入星座组网序列,支撑全球偏远地区、移动场景的网络连接服务。

基本信息
目录编号:
48305
目录名称:
STARLINK-2519
国际标识:
2021-036AF
轨道中心:
EARTH
卫星名称:
星链-2519
卫星全名:
星链-2519 (STARLINK-2519 )
卫星状态:
在轨 (已飞行1954 天)
发射日期:
2021-04-29 UTC
国别 :
美国 (US)
星等 :
--
轨道信息
数据来源 国际轨道数据 AOE轨道数据
星历时间 2026-09-04T03:25:33+0800
12小时前
查看轨道信息
2026-09-03T07:00:00+0800
1天前
查看轨道信息
半长轴 6848.837km 6848.839km
偏心率 0.0001125 0.000114
轨道倾角 53.160° 53.158°
近地点辐角 81.116° 66.247°
升交点赤经 350.582° 354.546°
平近点角 278.997° 278.260°
近地点 469.929km 469.921km
远地点 471.471km 471.483km
周期 94.012分钟 94.012分钟
每日圈数 15.317137 15.317129
详细信息
固有亮度:
5
最大亮度:
2.5
卫星平台:
Starlink V1.0
覆盖范围:
全球
运营商:
太空探索技术公司
运营商所在国:
美国
制造商(研发单位):
太空探索技术公司
制造商所在国:
美国
使用方式:
暂无
卫星简介
星链(Starlink)计划是由太空探索技术公司(SpaceX)提出的一个巨型低轨卫星互联网星座项目,计划在2019年至2024年间在太空搭建由约1.2万颗卫星组成的“星链”网络,其中1584颗将部署在地球上空550千米处的近地轨道,并从2020年开始工作。该卫星仍在工作。
2D轨道图
3D轨道图
轨道高度分析图
轨道倾角分析图
轨道综合分析图
查看轨道综合分析图
交会数据列表
事件ID 空间交会对象 最接近时刻(TCA) 交会距离 交会风险概率(CRP) 交会风险指数(CRI) 操作
CDM_260905-004104-830506-116321
2026-09-05T
00:41:15+0000
2.661 km
极远距离
1.456948E-6 低风险 0.38
CDM_260827-183104-830505-634422
2026-08-27T
18:31:56+0000
2.825 km
极远距离
1.414601E-6 低风险 0.38
CDM_260829-041704-830506-886121
2026-08-29T
04:17:41+0000
2.859 km
极远距离
1.332134E-6 低风险 0.37
CDM_260905-000004-830505-635621
2026-09-05T
00:00:15+0000
2.946 km
极远距离
1.208875E-6 低风险 0.37
CDM_260905-053304-830506-950121
2026-09-05T
05:33:08+0000
2.953 km
极远距离
1.093369E-6 低风险 0.36